sat.trackr.live / text

‹ back to catalog

STARLINK-4262

NORAD 53015 · 2022-076AF

PAYLOAD ACTIVE UNKNOWN

§ Identity

Operator
Country
US
Launch date
2022-07-07
Launch site
AFETR
Launch vehicle
Mass (kg)
RCS (m²)

Purposes: comms

External: N2YO · Heavens-Above · Gunter

§ Orbital elements

Epoch: 2026-05-25T03:03:51.575328Z

Period
95.44 min
Inclination
53.2146°
Eccentricity
0.0001254
Mean motion
15.08831856 rev/d
Perigee alt
538.9 km
Apogee alt
540.6 km
Semi-major
6,917.9 km
B*
-1.8243e-5
RAAN
100.9759°
Arg perigee
75.0216°
Mean anomaly
285.0914°
Rev number
21,452

§ Raw data

STARLINK-42621 53015U 22076AF  26145.12768027 -.00000578  00000+0 -18243-4 0  99952 53015  53.2146 100.9759 0001254  75.0216 285.0914 15.08831856214529

JSON: /api/v1/satellites/53015 · /tle

For live sub-satellite position, see the globe view (requires WebGL).

§ Visibility from observer

Set your observer location to see the next 7 days of passes ≥ 10°. The values pass through the URL so the page stays shareable.

No JS? Fill the form by hand. The geolocation button needs JavaScript.